Weather History for Kremmling, CO

Change the Weather History Date:

Thursday, March 14, 2013

  Actual Average (KEGE) Record (KEGE)
Temperature  
Mean Temperature 32 °F -  
Max Temperature 44 °F 47 °F 62 °F (1966)
Min Temperature 19 °F 21 °F -11 °F (1964)
Degree Days  
Heating Degree Days 34    
Moisture  
Dew Point 23 °F    
Average Humidity 74    
Maximum Humidity 93    
Minimum Humidity 46    
Precipitation  
Precipitation 0.00 in - - ()
Sea Level Pressure  
Sea Level Pressure 30.42 in    
Wind  
Wind Speed 1 mph (ESE)    
Max Wind Speed 6 mph    
Max Gust Speed -    
Averages and records for this station are not official NWS values.
T = Trace of Precipitation, MM = Missing Value Source: NWS Daily Summary

Daily Weather History Graph

Daily Weather History Graph

Search for Another Location

Airport:

Trip Planner

Search our weather history database for the weather conditions in past years. The results will help you decide how hot, cold, wet, or windy it might be!

Date:

Astronomy

Mar. 14, 2013 Rise Set
Actual Time 7:18 AM MDT 7:11 PM MDT
Civil Twilight 6:51 AM MDT 7:38 PM MDT
Nautical Twilight 6:19 AM MDT 8:10 PM MDT
Astronomical Twilight 5:47 AM MDT 8:42 PM MDT
Moon 8:33 AM MDT (3/14) 10:30 PM MDT (3/14)
Length of Visible Light 12h 47m
Length of Day
11h 53m
Waxing Crescent, 9% of the Moon is Illuminated
Mar 14
Waxing Crescent
Mar 19
First Quarter
Mar 27
Full
Apr 2
Last Quarter
Apr 10
New

Hourly Weather History & Observations

Time (MDT) Temp. Windchill Dew Point Humidity Pressure Visibility Wind Dir Wind Speed Gust Speed Precip Events Conditions
12:16 AM 30.2 °F - 24.8 °F 80% 30.44 in - Calm Calm - N/A   Clear
12:56 AM 28.4 °F - 23.0 °F 80% 30.44 in - Calm Calm - N/A   Unknown
1:16 AM 28.4 °F - 23.0 °F 80% 30.45 in - Calm Calm - N/A   Unknown
1:36 AM 24.8 °F - 21.2 °F 86% 30.44 in - Calm Calm - N/A   Unknown
1:56 AM 24.8 °F - 21.2 °F 86% 30.45 in - Calm Calm - N/A   Unknown
2:16 AM 23.0 °F - 19.4 °F 86% 30.45 in - Calm Calm - N/A   Unknown
2:36 AM 23.0 °F - 21.2 °F 93% 30.45 in - Calm Calm - N/A   Unknown
2:56 AM 24.8 °F - 21.2 °F 86% 30.45 in - Calm Calm - N/A   Unknown
3:16 AM 24.8 °F - 21.2 °F 86% 30.44 in - Calm Calm - N/A   Unknown
3:36 AM 24.8 °F - 21.2 °F 86% 30.44 in - Calm Calm - N/A   Unknown
3:56 AM 23.0 °F - 19.4 °F 86% 30.44 in - Calm Calm - N/A   Unknown
4:16 AM 23.0 °F - 21.2 °F 93% 30.43 in - Calm Calm - N/A   Unknown
4:35 AM 23.0 °F - 19.4 °F 86% 30.43 in - Calm Calm - N/A   Unknown
4:56 AM 23.0 °F - 19.4 °F 86% 30.44 in - Calm Calm - N/A   Unknown
5:16 AM 23.0 °F - 19.4 °F 86% 30.45 in - Calm Calm - N/A   Unknown
5:36 AM 21.2 °F - 19.4 °F 93% 30.45 in - Calm Calm - N/A   Unknown
5:56 AM 23.0 °F - 19.4 °F 86% 30.46 in - Calm Calm - N/A   Unknown
6:16 AM 21.2 °F - 19.4 °F 93% 30.46 in - Calm Calm - N/A   Unknown
6:36 AM 19.4 °F 14.3 °F 17.6 °F 93% 30.46 in - ESE 3.5 mph - N/A   Unknown
6:56 AM 19.4 °F 11.5 °F 17.6 °F 93% 30.46 in - East 5.8 mph - N/A   Unknown
7:16 AM 19.4 °F - 17.6 °F 93% 30.47 in - Calm Calm - N/A   Unknown
7:36 AM 19.4 °F - 17.6 °F 93% 30.48 in - Calm Calm - N/A   Unknown
7:56 AM 19.4 °F - 17.6 °F 93% 30.48 in - Calm Calm - N/A   Unknown
8:16 AM 21.2 °F - 17.6 °F 86% 30.49 in - Calm Calm - N/A   Unknown
8:36 AM 23.0 °F 18.4 °F 19.4 °F 86% 30.49 in - East 3.5 mph - N/A   Clear
8:56 AM 23.0 °F - 17.6 °F 80% 30.49 in - Calm Calm - N/A   Clear
9:16 AM 28.4 °F - 19.4 °F 69% 30.49 in - Calm Calm - N/A   Clear
9:36 AM 28.4 °F 24.6 °F 19.4 °F 69% 30.49 in - SW 3.5 mph - N/A   Clear
9:56 AM 28.4 °F - 21.2 °F 74% 30.49 in - Calm Calm - N/A   Clear
10:16 AM 30.2 °F - 21.2 °F 69% 30.49 in - Calm Calm - N/A   Clear
10:36 AM 32.0 °F - 21.2 °F 64% 30.49 in - Calm Calm - N/A   Clear
10:55 AM 33.8 °F 30.8 °F 23.0 °F 65% 30.49 in - ESE 3.5 mph - N/A   Clear
11:16 AM 33.8 °F - 23.0 °F 65% 30.49 in - Calm Calm - N/A   Unknown
11:35 AM 35.6 °F - 23.0 °F 60% 30.48 in - Calm Calm - N/A   Clear
11:56 AM - - - N/A% - - North - - N/A   Unknown
12:16 PM 37.4 °F 34.9 °F 23.0 °F 56% 30.46 in - East 3.5 mph - N/A   Clear
12:35 PM 35.6 °F - 21.2 °F 56% 30.47 in - Calm Calm - N/A   Clear
12:56 PM 37.4 °F 33.8 °F 23.0 °F 56% 30.46 in - East 4.6 mph - N/A   Clear
1:16 PM 39.2 °F 37.0 °F 23.0 °F 52% 30.44 in - East 3.5 mph - N/A   Clear
1:35 PM 37.4 °F 32.8 °F 23.0 °F 56% 30.43 in - ESE 5.8 mph - N/A   Clear
1:56 PM 39.2 °F 35.9 °F 23.0 °F 52% 30.43 in - ESE 4.6 mph - N/A   Clear
2:16 PM 41.0 °F 38.0 °F 23.0 °F 49% 30.41 in - East 4.6 mph - N/A   Clear
2:35 PM 37.4 °F 34.9 °F 23.0 °F 56% 30.41 in - ESE 3.5 mph - N/A   Clear
2:55 PM 41.0 °F - 23.0 °F 49% 30.41 in - Calm Calm - N/A   Clear
3:15 PM 42.8 °F - 23.0 °F 46% 30.39 in - Calm Calm - N/A   Clear
3:35 PM 42.8 °F - 26.6 °F 53% 30.38 in - Calm Calm - N/A   Clear
3:55 PM 42.8 °F - 24.8 °F 49% 30.38 in - Calm Calm - N/A   Clear
4:15 PM 42.8 °F 40.1 °F 26.6 °F 53% 30.38 in - ESE 4.6 mph - N/A   Clear
4:35 PM 42.8 °F 40.1 °F 26.6 °F 53% 30.37 in - East 4.6 mph - N/A   Clear
4:55 PM 44.6 °F - 26.6 °F 49% 30.36 in - Calm Calm - N/A   Clear
5:15 PM 42.8 °F - 26.6 °F 53% 30.36 in - Calm Calm - N/A   Clear
5:34 PM 42.8 °F - 26.6 °F 53% 30.36 in - Calm Calm - N/A   Clear
5:55 PM 42.8 °F - 26.6 °F 53% 30.35 in - Calm Calm - N/A   Clear
6:15 PM 41.0 °F - 26.6 °F 57% 30.35 in - Calm Calm - N/A   Clear
6:35 PM 41.0 °F 39.0 °F 26.6 °F 57% 30.35 in - East 3.5 mph - N/A   Clear
6:55 PM 37.4 °F 34.9 °F 28.4 °F 70% 30.35 in - East 3.5 mph - N/A   Clear
7:14 PM 35.6 °F - 28.4 °F 75% 30.35 in - Calm Calm - N/A   Clear
7:35 PM 35.6 °F - 28.4 °F 75% 30.36 in - Calm Calm - N/A   Clear
7:55 PM 35.6 °F - 28.4 °F 75% 30.35 in - Calm Calm - N/A   Clear
8:15 PM 33.8 °F - 28.4 °F 81% 30.35 in - Calm Calm - N/A   Clear
8:35 PM 33.8 °F - 28.4 °F 81% 30.35 in - Calm Calm - N/A   Clear
8:55 PM 32.0 °F 28.7 °F 26.6 °F 80% 30.35 in - ESE 3.5 mph - N/A   Clear
9:15 PM 30.2 °F - 26.6 °F 86% 30.36 in - Calm Calm - N/A   Clear
9:35 PM 32.0 °F - 26.6 °F 80% 30.36 in - Calm Calm - N/A   Clear
9:55 PM 30.2 °F - 24.8 °F 80% 30.36 in - Calm Calm - N/A   Clear
10:14 PM 30.2 °F - 26.6 °F 86% 30.36 in - Calm Calm - N/A   Unknown
10:34 PM 30.2 °F - 26.6 °F 86% 30.36 in - Calm Calm - N/A   Unknown
10:55 PM 32.0 °F - 26.6 °F 80% 30.35 in - Calm Calm - N/A   Clear
11:15 PM 30.2 °F - 26.6 °F 86% 30.36 in - Calm Calm - N/A   Unknown
11:35 PM 30.2 °F - 26.6 °F 86% 30.35 in - Calm Calm - N/A   Unknown
11:55 PM 30.2 °F - 26.6 °F 86% 30.34 in - Calm Calm - N/A   Unknown